Time,TemperatureF,DewpointF,PressureIn,WindDirection,WindDirectionDegrees,WindSpeedMPH,WindSpeedGustMPH,Humidity,HourlyPrecipIn,Conditions,Clouds,dailyrainin,SoftwareType,DateUTC
2013-09-05 00:13:00,58.0,-99.9,30.19,NNE,30,8.0,10.0,-999,-99.99,,,-99.99,,2013-09-05 05:13:00,
2013-09-05 00:23:00,58.0,-99.9,30.19,NNE,30,8.0,10.0,-999,-99.99,,,-99.99,,2013-09-05 05:23:00,
2013-09-05 00:34:00,58.0,-99.9,30.19,NNE,30,8.0,10.0,-999,-99.99,,,-99.99,,2013-09-05 05:34:00,
2013-09-05 00:40:00,58.0,-99.9,30.20,NNE,30,9.0,11.0,-999,-99.99,,,-99.99,,2013-09-05 05:40:00,
2013-09-05 01:13:00,58.0,-99.9,30.20,NNE,30,9.0,11.0,-999,-99.99,,,-99.99,,2013-09-05 06:13:00,
2013-09-05 01:22:00,58.0,-99.9,30.20,NNE,30,9.0,11.0,-999,-99.99,,,-99.99,,2013-09-05 06:22:00,
2013-09-05 01:32:00,58.0,-99.9,30.20,NNE,30,9.0,11.0,-999,-99.99,,,-99.99,,2013-09-05 06:32:00,
2013-09-05 01:40:00,58.0,-99.9,30.21,NNE,30,8.0,13.0,-999,-99.99,,,-99.99,,2013-09-05 06:40:00,
2013-09-05 02:12:00,58.0,-99.9,30.21,NNE,30,8.0,13.0,-999,-99.99,,,-99.99,,2013-09-05 07:12:00,
2013-09-05 02:23:00,58.0,-99.9,30.21,NNE,30,8.0,13.0,-999,-99.99,,,-99.99,,2013-09-05 07:23:00,
2013-09-05 02:32:00,58.0,-99.9,30.21,NNE,30,8.0,13.0,-999,-99.99,,,-99.99,,2013-09-05 07:32:00,
2013-09-05 02:40:00,57.0,-99.9,30.22,NNE,20,10.0,14.0,-999,-99.99,,,-99.99,,2013-09-05 07:40:00,
2013-09-05 03:12:00,57.0,-99.9,30.22,NNE,20,10.0,14.0,-999,-99.99,,,-99.99,,2013-09-05 08:12:00,
2013-09-05 03:22:00,57.0,-99.9,30.22,NNE,20,10.0,14.0,-999,-99.99,,,-99.99,,2013-09-05 08:22:00,
2013-09-05 03:32:00,57.0,-99.9,30.22,NNE,20,10.0,14.0,-999,-99.99,,,-99.99,,2013-09-05 08:32:00,
2013-09-05 03:40:00,57.0,-99.9,30.23,NNE,30,7.0,11.0,-999,-99.99,,,-99.99,,2013-09-05 08:40:00,
2013-09-05 04:11:00,57.0,-99.9,30.23,NNE,30,7.0,11.0,-999,-99.99,,,-99.99,,2013-09-05 09:11:00,
2013-09-05 04:22:00,57.0,-99.9,30.23,NNE,30,7.0,11.0,-999,-99.99,,,-99.99,,2013-09-05 09:22:00,
2013-09-05 04:33:00,57.0,-99.9,30.23,NNE,30,7.0,11.0,-999,-99.99,,,-99.99,,2013-09-05 09:33:00,
2013-09-05 04:40:00,57.0,-99.9,30.24,NNE,30,7.0,11.0,-999,-99.99,,,-99.99,,2013-09-05 09:40:00,
2013-09-05 05:13:00,57.0,-99.9,30.24,NNE,30,7.0,11.0,-999,-99.99,,,-99.99,,2013-09-05 10:13:00,
2013-09-05 05:23:00,57.0,-99.9,30.24,NNE,30,7.0,11.0,-999,-99.99,,,-99.99,,2013-09-05 10:23:00,
2013-09-05 05:33:00,57.0,-99.9,30.24,NNE,30,7.0,11.0,-999,-99.99,,,-99.99,,2013-09-05 10:33:00,
2013-09-05 05:40:00,57.0,-99.9,30.27,NNE,30,9.0,10.0,-999,-99.99,,,-99.99,,2013-09-05 10:40:00,
2013-09-05 06:12:00,57.0,-99.9,30.27,NNE,30,9.0,10.0,-999,-99.99,,,-99.99,,2013-09-05 11:12:00,
2013-09-05 06:22:00,57.0,-99.9,30.27,NNE,30,9.0,10.0,-999,-99.99,,,-99.99,,2013-09-05 11:22:00,
2013-09-05 06:34:00,57.0,-99.9,30.27,NNE,30,9.0,10.0,-999,-99.99,,,-99.99,,2013-09-05 11:34:00,
2013-09-05 06:40:00,57.0,-99.9,30.30,NNE,30,8.0,10.0,-999,-99.99,,,-99.99,,2013-09-05 11:40:00,
2013-09-05 07:13:00,57.0,-99.9,30.30,NNE,30,8.0,10.0,-999,-99.99,,,-99.99,,2013-09-05 12:13:00,
2013-09-05 07:22:00,57.0,-99.9,30.30,NNE,30,8.0,10.0,-999,-99.99,,,-99.99,,2013-09-05 12:22:00,
2013-09-05 07:32:00,57.0,-99.9,30.30,NNE,30,8.0,10.0,-999,-99.99,,,-99.99,,2013-09-05 12:32:00,
2013-09-05 07:40:00,58.0,-99.9,30.31,NNE,30,7.0,9.0,-999,-99.99,,,-99.99,,2013-09-05 12:40:00,
2013-09-05 08:12:00,58.0,-99.9,30.31,NNE,30,7.0,9.0,-999,-99.99,,,-99.99,,2013-09-05 13:12:00,
2013-09-05 08:22:00,58.0,-99.9,30.31,NNE,30,7.0,9.0,-999,-99.99,,,-99.99,,2013-09-05 13:22:00,
2013-09-05 08:32:00,58.0,-99.9,30.31,NNE,30,7.0,9.0,-999,-99.99,,,-99.99,,2013-09-05 13:32:00,
2013-09-05 08:40:00,60.0,-99.9,30.31,NNE,20,5.0,8.0,-999,-99.99,,,-99.99,,2013-09-05 13:40:00,
2013-09-05 09:12:00,60.0,-99.9,30.31,NNE,20,5.0,8.0,-999,-99.99,,,-99.99,,2013-09-05 14:12:00,
2013-09-05 09:22:00,60.0,-99.9,30.31,NNE,20,5.0,8.0,-999,-99.99,,,-99.99,,2013-09-05 14:22:00,
2013-09-05 09:32:00,60.0,-99.9,30.31,NNE,20,5.0,8.0,-999,-99.99,,,-99.99,,2013-09-05 14:32:00,
2013-09-05 09:40:00,60.0,-99.9,30.32,ENE,70,5.0,7.0,-999,-99.99,,,-99.99,,2013-09-05 14:40:00,
2013-09-05 10:11:00,60.0,-99.9,30.32,ENE,70,5.0,7.0,-999,-99.99,,,-99.99,,2013-09-05 15:11:00,
2013-09-05 10:22:00,60.0,-99.9,30.32,ENE,70,5.0,7.0,-999,-99.99,,,-99.99,,2013-09-05 15:22:00,
2013-09-05 10:34:00,60.0,-99.9,30.32,ENE,70,5.0,7.0,-999,-99.99,,,-99.99,,2013-09-05 15:34:00,
2013-09-05 10:40:00,61.0,-99.9,30.32,ESE,110,6.0,8.0,-999,-99.99,,,-99.99,,2013-09-05 15:40:00,
2013-09-05 11:13:00,61.0,-99.9,30.32,ESE,110,6.0,8.0,-999,-99.99,,,-99.99,,2013-09-05 16:13:00,
2013-09-05 11:24:00,61.0,-99.9,30.32,ESE,110,6.0,8.0,-999,-99.99,,,-99.99,,2013-09-05 16:24:00,
2013-09-05 11:33:00,61.0,-99.9,30.32,ESE,110,6.0,8.0,-999,-99.99,,,-99.99,,2013-09-05 16:33:00,
2013-09-05 11:40:00,60.0,-99.9,30.32,East,100,5.0,7.0,-999,-99.99,,,-99.99,,2013-09-05 16:40:00,
2013-09-05 12:12:00,60.0,-99.9,30.32,East,100,5.0,7.0,-999,-99.99,,,-99.99,,2013-09-05 17:12:00,
2013-09-05 12:23:00,60.0,-99.9,30.32,East,100,5.0,7.0,-999,-99.99,,,-99.99,,2013-09-05 17:23:00,
2013-09-05 12:34:00,60.0,-99.9,30.32,East,100,5.0,7.0,-999,-99.99,,,-99.99,,2013-09-05 17:34:00,
2013-09-05 12:40:00,60.0,-99.9,30.31,ESE,120,6.0,9.0,-999,-99.99,,,-99.99,,2013-09-05 17:40:00,
2013-09-05 13:12:00,60.0,-99.9,30.31,ESE,120,6.0,9.0,-999,-99.99,,,-99.99,,2013-09-05 18:12:00,
2013-09-05 13:22:00,60.0,-99.9,30.31,ESE,120,6.0,9.0,-999,-99.99,,,-99.99,,2013-09-05 18:22:00,
2013-09-05 13:32:00,60.0,-99.9,30.31,ESE,120,6.0,9.0,-999,-99.99,,,-99.99,,2013-09-05 18:32:00,
2013-09-05 13:40:00,60.0,-99.9,30.30,SE,130,7.0,9.0,-999,-99.99,,,-99.99,,2013-09-05 18:40:00,
2013-09-05 14:11:00,60.0,-99.9,30.30,SE,130,7.0,9.0,-999,-99.99,,,-99.99,,2013-09-05 19:11:00,
2013-09-05 14:22:00,60.0,-99.9,30.30,SE,130,7.0,9.0,-999,-99.99,,,-99.99,,2013-09-05 19:22:00,
2013-09-05 14:32:00,60.0,-99.9,30.30,SE,130,7.0,9.0,-999,-99.99,,,-99.99,,2013-09-05 19:32:00,
2013-09-05 14:40:00,61.0,-99.9,30.29,SE,130,7.0,9.0,-999,-99.99,,,-99.99,,2013-09-05 19:40:00,
2013-09-05 15:11:00,61.0,-99.9,30.29,SE,130,7.0,9.0,-999,-99.99,,,-99.99,,2013-09-05 20:11:00,
2013-09-05 15:22:00,61.0,-99.9,30.29,SE,130,7.0,9.0,-999,-99.99,,,-99.99,,2013-09-05 20:22:00,
2013-09-05 15:32:00,61.0,-99.9,30.29,SE,130,7.0,9.0,-999,-99.99,,,-99.99,,2013-09-05 20:32:00,
2013-09-05 15:40:00,61.0,-99.9,30.27,SE,130,8.0,11.0,-999,-99.99,,,-99.99,,2013-09-05 20:40:00,
2013-09-05 16:12:00,61.0,-99.9,30.27,SE,130,8.0,11.0,-999,-99.99,,,-99.99,,2013-09-05 21:12:00,
2013-09-05 16:22:00,61.0,-99.9,30.27,SE,130,8.0,11.0,-999,-99.99,,,-99.99,,2013-09-05 21:22:00,
2013-09-05 16:34:00,61.0,-99.9,30.27,SE,130,8.0,11.0,-999,-99.99,,,-99.99,,2013-09-05 21:34:00,
2013-09-05 16:40:00,62.0,-99.9,30.26,SE,140,10.0,13.0,-999,-99.99,,,-99.99,,2013-09-05 21:40:00,
2013-09-05 17:13:00,62.0,-99.9,30.26,SE,140,10.0,13.0,-999,-99.99,,,-99.99,,2013-09-05 22:13:00,
2013-09-05 17:24:00,62.0,-99.9,30.26,SE,140,10.0,13.0,-999,-99.99,,,-99.99,,2013-09-05 22:24:00,
2013-09-05 17:33:00,62.0,-99.9,30.26,SE,140,10.0,13.0,-999,-99.99,,,-99.99,,2013-09-05 22:33:00,
2013-09-05 17:40:00,62.0,-99.9,30.26,SSE,150,9.0,13.0,-999,-99.99,,,-99.99,,2013-09-05 22:40:00,
2013-09-05 18:12:00,62.0,-99.9,30.26,SSE,150,9.0,13.0,-999,-99.99,,,-99.99,,2013-09-05 23:12:00,
2013-09-05 18:22:00,62.0,-99.9,30.26,SSE,150,9.0,13.0,-999,-99.99,,,-99.99,,2013-09-05 23:22:00,
2013-09-05 18:34:00,62.0,-99.9,30.26,SSE,150,9.0,13.0,-999,-99.99,,,-99.99,,2013-09-05 23:34:00,
2013-09-05 18:40:00,61.0,-99.9,30.25,SSE,160,6.0,9.0,-999,-99.99,,,-99.99,,2013-09-05 23:40:00,
2013-09-05 19:12:00,61.0,-99.9,30.25,SSE,160,6.0,9.0,-999,-99.99,,,-99.99,,2013-09-06 00:12:00,
2013-09-05 19:22:00,61.0,-99.9,30.25,SSE,160,6.0,9.0,-999,-99.99,,,-99.99,,2013-09-06 00:22:00,
2013-09-05 19:33:00,61.0,-99.9,30.25,SSE,160,6.0,9.0,-999,-99.99,,,-99.99,,2013-09-06 00:33:00,
2013-09-05 19:40:00,59.0,-99.9,30.24,SSE,160,5.0,8.0,-999,-99.99,,,-99.99,,2013-09-06 00:40:00,
2013-09-05 20:11:00,59.0,-99.9,30.24,SSE,160,5.0,8.0,-999,-99.99,,,-99.99,,2013-09-06 01:11:00,
2013-09-05 20:22:00,59.0,-99.9,30.24,SSE,160,5.0,8.0,-999,-99.99,,,-99.99,,2013-09-06 01:22:00,
2013-09-05 20:32:00,59.0,-99.9,30.24,SSE,160,5.0,8.0,-999,-99.99,,,-99.99,,2013-09-06 01:32:00,
2013-09-05 20:40:00,59.0,-99.9,30.24,SSE,160,5.0,8.0,-999,-99.99,,,-99.99,,2013-09-06 01:40:00,
2013-09-05 21:12:00,59.0,-99.9,30.24,SSE,160,5.0,8.0,-999,-99.99,,,-99.99,,2013-09-06 02:12:00,
2013-09-05 21:22:00,59.0,-99.9,30.24,SSE,160,5.0,8.0,-999,-99.99,,,-99.99,,2013-09-06 02:22:00,
2013-09-05 21:33:00,59.0,-99.9,30.24,SSE,160,5.0,8.0,-999,-99.99,,,-99.99,,2013-09-06 02:33:00,
2013-09-05 21:40:00,57.0,-99.9,30.23,South,180,3.0,8.0,-999,-99.99,,,-99.99,,2013-09-06 02:40:00,
2013-09-05 22:11:00,57.0,-99.9,30.23,South,180,3.0,8.0,-999,-99.99,,,-99.99,,2013-09-06 03:11:00,
2013-09-05 22:22:00,57.0,-99.9,30.23,South,180,3.0,8.0,-999,-99.99,,,-99.99,,2013-09-06 03:22:00,
2013-09-05 22:34:00,57.0,-99.9,30.23,South,180,3.0,8.0,-999,-99.99,,,-99.99,,2013-09-06 03:34:00,
2013-09-05 22:40:00,57.0,-99.9,30.23,South,180,3.0,7.0,-999,-99.99,,,-99.99,,2013-09-06 03:40:00,
2013-09-05 23:14:00,57.0,-99.9,30.23,South,180,3.0,7.0,-999,-99.99,,,-99.99,,2013-09-06 04:14:00,
2013-09-05 23:23:00,57.0,-99.9,30.23,South,180,3.0,7.0,-999,-99.99,,,-99.99,,2013-09-06 04:23:00,
2013-09-05 23:34:00,57.0,-99.9,30.23,South,180,3.0,7.0,-999,-99.99,,,-99.99,,2013-09-06 04:34:00,
2013-09-05 23:40:00,58.0,-99.9,30.22,South,180,3.0,7.0,-999,-99.99,,,-99.99,,2013-09-06 04:40:00,